[[{"header":{"parameterUnit":"m.s-1","parameterCategory":2,"la1":30.2992,"la2":30.254,"lo1":-89.0895,"lo2":-89.0443,"dy":0.0025,"dx":0.0025,"nx":19,"ny":19,"refTime":"2026-04-11T21:00:00:Z","depth":"0","parameterNumber":2,"parameterNumberName":"U-component_of_CURRENTS"},"data":[0,0,0,-0.2756,-0.2756,-0.2765,-0.2765,-0.2769,-0.277,0,0,0,0,0,0,0,0,0,0,0,-0.2749,-0.2749,-0.2756,-0.2757,-0.2765,-0.2765,-0.2769,-0.277,0,0,0,0,0,0,0,0,0,0,0,-0.2748,-0.2749,-0.2749,-0.2757,-0.2765,-0.2765,-0.2769,-0.2764,0,0,0,0,0,0,0,0,0,0,-0.2756,-0.2749,-0.2749,-0.2749,-0.2757,-0.2765,-0.2765,-0.2764,-0.2764,-0.2765,0,-0.2765,0,-0.2771,-0.277,-0.277,0,0,0,-0.2753,-0.2748,-0.2754,-0.2749,-0.2757,-0.2765,-0.276,-0.2764,-0.2765,-0.2765,-0.2765,-0.2765,-0.2771,-0.277,-0.277,-0.2852,-0.2853,0,0,-0.2753,-0.2747,-0.2754,-0.2755,-0.2757,-0.276,-0.2761,-0.2764,-0.2762,-0.2765,-0.2766,-0.2771,-0.277,-0.277,-0.2851,-0.2852,0,0,0,-0.2754,-0.2747,-0.2752,-0.2754,-0.2758,-0.276,-0.2761,-0.2762,-0.2765,-0.2766,-0.2771,-0.277,-0.277,-0.285,-0.2851,-0.2966,0,0,0,-0.2753,-0.2747,-0.2752,-0.2748,-0.2758,-0.2761,-0.2758,-0.2764,-0.2765,-0.2771,-0.277,-0.277,-0.2849,-0.2851,-0.296,-0.3015,0,0,0,-0.2748,-0.2747,-0.2748,-0.2748,-0.2754,-0.2761,-0.2764,-0.2765,-0.2768,-0.277,-0.277,-0.2849,-0.2851,-0.2956,-0.3007,-0.3034,0,0,0,-0.2742,-0.2778,-0.2748,-0.2803,-0.2754,-0.2829,-0.2764,-0.2802,-0.2813,-0.277,-0.2849,-0.2851,-0.2954,-0.3002,-0.3029,-0.2971,-0.2987,0,0,-0.2795,-0.2784,-0.2824,-0.2799,-0.2887,-0.2827,-0.292,-0.2889,-0.2841,-0.2844,-0.2846,-0.2962,-0.3007,-0.3033,-0.3088,-0.31,0,0,0,-0.2849,-0.2874,-0.2899,-0.2936,-0.2965,-0.2999,-0.2969,-0.2964,-0.2966,-0.2855,-0.2971,-0.2996,-0.3008,-0.2964,-0.2975,-0.2604,-0.2861,-0.286,-0.286,-0.287,-0.2918,-0.3,-0.3057,-0.3097,-0.3118,-0.3148,-0.313,-0.3064,-0.3085,-0.3096,-0.3205,-0.3162,-0.3168,-0.2788,-0.31,-0.31,-0.3101,-0.3101,-0.2967,-0.3018,-0.3078,-0.3177,-0.3211,-0.3269,-0.3303,-0.3274,-0.3299,-0.3226,-0.3231,-0.3096,-0.3186,-0.2775,-0.3109,-0.3107,-0.3106,-0.3106,-0.3105,-0.2969,-0.3009,-0.3078,-0.3217,-0.3301,-0.3346,-0.3422,-0.3428,-0.3394,-0.3425,-0.3309,-0.3305,-0.2934,-0.3398,-0.3398,-0.3399,-0.3399,-0.3399,-0.34,-0.2938,-0.3019,-0.3119,-0.3262,-0.3325,-0.3412,-0.3488,-0.3509,-0.3482,-0.3434,-0.3432,-0.2924,-0.3295,-0.3271,-0.3406,-0.3405,-0.3404,-0.3403,-0.3403,-0.2957,-0.2989,-0.3126,-0.3211,-0.3378,-0.3369,-0.35,-0.3501,-0.3541,-0.3506,-0.2977,-0.3423,-0.3371,-0.336,-0.3337,-0.3482,-0.3482,-0.3482,-0.3482,-0.2933,-0.2978,-0.3105,-0.3214,-0.3333,-0.3344,-0.3233,-0.3149,-0.2966,-0.2756,-0.2799,-0.2663,-0.2676,-0.2573,-0.258,-0.2537,-0.2475,-0.2473,-0.2471,-0.2945,-0.2981,-0.3026,-0.3148,-0.3276,-0.3234,-0.2932,-0.2492,-0.2277,-0.2391,-0.2293,-0.2336,-0.2095,-0.2146,-0.1952,-0.1991,-0.191,0,0]},{"header":{"parameterUnit":"m.s-1","parameterCategory":2,"la1":30.2992,"la2":30.254,"lo1":-89.0895,"lo2":-89.0443,"dy":0.0025,"dx":0.0025,"nx":19,"ny":19,"refTime":"2026-04-11T21:00:00:Z","depth":"0","parameterNumber":3,"parameterNumberName":"V-component_of_CURRENTS"},"data":[0,0,0,-0.0543,-0.0541,-0.04,-0.0399,-0.0203,-0.0202,0,0,0,0,0,0,0,0,0,0,0,-0.0595,-0.0595,-0.0544,-0.0541,-0.04,-0.0399,-0.0204,-0.0202,0,0,0,0,0,0,0,0,0,0,0,-0.0596,-0.0595,-0.0594,-0.054,-0.04,-0.0399,-0.0204,-0.0309,0,0,0,0,0,0,0,0,0,0,-0.0446,-0.0498,-0.0595,-0.0594,-0.054,-0.0401,-0.0399,-0.0314,-0.0303,-0.0269,0,-0.0261,0,-0.0233,-0.019,-0.019,0,0,0,-0.0521,-0.0508,-0.0478,-0.0594,-0.0539,-0.0401,-0.0458,-0.0308,-0.0295,-0.0253,-0.0258,-0.0251,-0.023,-0.0189,-0.0188,-0.0116,-0.0116,0,0,-0.0529,-0.0555,-0.0488,-0.0471,-0.052,-0.0463,-0.0454,-0.03,-0.0289,-0.0258,-0.0246,-0.0227,-0.0188,-0.0187,-0.0115,-0.0116,0,0,0,-0.0564,-0.056,-0.0534,-0.0479,-0.0458,-0.0459,-0.0449,-0.0295,-0.0289,-0.0244,-0.0225,-0.0187,-0.0185,-0.0115,-0.0115,-0.0211,0,0,0,-0.0568,-0.0582,-0.0538,-0.055,-0.0462,-0.0376,-0.0448,-0.03,-0.0281,-0.0226,-0.0187,-0.0183,-0.0114,-0.0115,-0.0207,-0.0267,0,0,0,-0.0599,-0.0585,-0.0577,-0.0552,-0.05,-0.0378,-0.0361,-0.0295,-0.027,-0.0189,-0.0183,-0.0114,-0.0115,-0.0203,-0.0261,-0.0305,0,0,0,-0.0618,-0.0623,-0.0577,-0.057,-0.0502,-0.0444,-0.0362,-0.0297,-0.0235,-0.0186,-0.0114,-0.0115,-0.0202,-0.0257,-0.0301,-0.0322,-0.0342,0,0,-0.064,-0.0626,-0.0622,-0.0579,-0.056,-0.0461,-0.0429,-0.0314,-0.0243,-0.0158,-0.0156,-0.0208,-0.026,-0.0304,-0.0391,-0.041,0,0,0,-0.0639,-0.0646,-0.0628,-0.0604,-0.0543,-0.0502,-0.0387,-0.034,-0.0266,-0.0215,-0.0206,-0.0236,-0.026,-0.0264,-0.0279,0.0063,-0.0121,-0.0121,-0.0121,-0.0698,-0.0676,-0.0689,-0.0659,-0.0618,-0.0522,-0.0483,-0.0402,-0.0313,-0.0308,-0.0312,-0.041,-0.0415,-0.0426,-0.0073,-0.0298,-0.0299,-0.0299,-0.0299,-0.077,-0.0796,-0.0763,-0.0772,-0.072,-0.0683,-0.0577,-0.0517,-0.0471,-0.0393,-0.0411,-0.0362,-0.0448,-0.0065,-0.0305,-0.0304,-0.0303,-0.0303,-0.0302,-0.0832,-0.0854,-0.085,-0.0881,-0.0874,-0.0795,-0.0802,-0.069,-0.0582,-0.0592,-0.0568,-0.0566,-0.023,-0.0593,-0.0594,-0.0594,-0.0595,-0.0595,-0.0595,-0.0914,-0.0919,-0.0988,-0.0997,-0.1027,-0.1021,-0.093,-0.0901,-0.0795,-0.069,-0.0689,-0.0222,-0.05,-0.0489,-0.0603,-0.0601,-0.06,-0.06,-0.0599,-0.1025,-0.1025,-0.1142,-0.1191,-0.1256,-0.127,-0.1174,-0.1077,-0.102,-0.0978,-0.0362,-0.0725,-0.0696,-0.0683,-0.0676,-0.0832,-0.0832,-0.0832,-0.0832,-0.1111,-0.1115,-0.1306,-0.1416,-0.1485,-0.1405,-0.1305,-0.1043,-0.0634,-0.0336,-0.026,-0.0135,-0.0141,-0.0069,-0.0069,-0.0045,-0.0037,-0.0035,-0.0033,-0.1208,-0.1259,-0.142,-0.1519,-0.1599,-0.1535,-0.1283,-0.0664,-0.0084,0.004,0.0225,0.0191,0.0421,0.0384,0.0534,0.0506,0.0558,0,0]}],[{"header":{"parameterUnit":"m.s-1","parameterCategory":2,"la1":30.2992,"la2":30.254,"lo1":-89.0895,"lo2":-89.0443,"dy":0.0025,"dx":0.0025,"nx":19,"ny":19,"refTime":"2026-04-11T21:00:00:Z","depth":"2","parameterNumber":2,"parameterNumberName":"U-component_of_CURRENTS"},"data":[0,0,0,-0.1249,-0.1251,-0.1342,-0.1343,-0.1402,-0.1402,0,0,0,0,0,0,0,0,0,0,0,-0.1217,-0.1218,-0.1249,-0.1251,-0.1342,-0.1343,-0.1402,-0.1402,0,0,0,0,0,0,0,0,0,0,0,-0.1217,-0.1218,-0.1218,-0.1252,-0.1342,-0.1343,-0.1402,-0.1348,0,0,0,0,0,0,0,0,0,0,-0.1268,-0.1264,-0.1218,-0.1218,-0.1252,-0.1342,-0.1343,-0.1346,-0.1352,-0.1343,0,-0.1358,0,-0.1379,-0.1404,-0.1405,0,0,0,-0.1255,-0.126,-0.1264,-0.1219,-0.1253,-0.1342,-0.1302,-0.135,-0.1356,-0.135,-0.1359,-0.1362,-0.138,-0.1405,-0.1405,-0.1571,-0.1573,0,0,-0.125,-0.1253,-0.126,-0.1268,-0.1276,-0.1299,-0.1305,-0.1354,-0.137,-0.1359,-0.1364,-0.1381,-0.1405,-0.1405,-0.157,-0.1572,0,0,0,-0.1233,-0.125,-0.1255,-0.1265,-0.1285,-0.1302,-0.1309,-0.1369,-0.1365,-0.1364,-0.1382,-0.1405,-0.1406,-0.1568,-0.157,-0.1702,0,0,0,-0.123,-0.1239,-0.1252,-0.1258,-0.1284,-0.1341,-0.1322,-0.1361,-0.1368,-0.1381,-0.1405,-0.1406,-0.1566,-0.1569,-0.1695,-0.1759,0,0,0,-0.1213,-0.1238,-0.1244,-0.1257,-0.1292,-0.1341,-0.1341,-0.1364,-0.1378,-0.1405,-0.1406,-0.1565,-0.1569,-0.1688,-0.1747,-0.1845,0,0,0,-0.1219,-0.122,-0.1244,-0.1276,-0.1291,-0.1391,-0.1341,-0.1396,-0.1424,-0.1405,-0.1566,-0.157,-0.1686,-0.1741,-0.1838,-0.1616,-0.1631,0,0,-0.1212,-0.122,-0.124,-0.1263,-0.1379,-0.1378,-0.1533,-0.1522,-0.1483,-0.1542,-0.1547,-0.1697,-0.1747,-0.1844,-0.1831,-0.1839,0,0,0,-0.1234,-0.1263,-0.1297,-0.1381,-0.1449,-0.1591,-0.1603,-0.1627,-0.1687,-0.1518,-0.1736,-0.1764,-0.182,-0.1673,-0.1681,-0.1588,-0.1587,-0.1587,-0.1587,-0.1365,-0.1375,-0.1456,-0.1516,-0.1609,-0.1742,-0.1837,-0.1885,-0.1808,-0.1866,-0.19,-0.2105,-0.1951,-0.1954,-0.1929,-0.193,-0.193,-0.1931,-0.1931,-0.1424,-0.1464,-0.1572,-0.1618,-0.1794,-0.1932,-0.2098,-0.2086,-0.2198,-0.2091,-0.2138,-0.1855,-0.1969,-0.1942,-0.194,-0.1939,-0.1937,-0.1937,-0.1936,-0.148,-0.1488,-0.1509,-0.1648,-0.1873,-0.2049,-0.2243,-0.2313,-0.2325,-0.2384,-0.2183,-0.2176,-0.2166,-0.2386,-0.2387,-0.2388,-0.2389,-0.2389,-0.239,-0.1496,-0.1513,-0.1549,-0.1692,-0.1849,-0.2063,-0.2316,-0.2394,-0.2394,-0.2328,-0.2325,-0.2258,-0.2243,-0.2194,-0.2401,-0.2399,-0.2398,-0.2397,-0.2396,-0.1403,-0.1446,-0.1516,-0.1616,-0.1922,-0.1992,-0.2245,-0.2302,-0.2415,-0.236,-0.2295,-0.2293,-0.2228,-0.2216,-0.2166,-0.2355,-0.2355,-0.2355,-0.2355,-0.1388,-0.1395,-0.1519,-0.1665,-0.1883,-0.198,-0.1855,-0.177,-0.1897,-0.1825,-0.1847,-0.1652,-0.1666,-0.1557,-0.1561,-0.1492,-0.1507,-0.1505,-0.1503,-0.1317,-0.1406,-0.1455,-0.1616,-0.1868,-0.1835,-0.1484,-0.1152,-0.1198,-0.1464,-0.1638,-0.231,-0.2075,-0.2077,-0.1947,-0.1939,-0.1843,0,0]},{"header":{"parameterUnit":"m.s-1","parameterCategory":2,"la1":30.2992,"la2":30.254,"lo1":-89.0895,"lo2":-89.0443,"dy":0.0025,"dx":0.0025,"nx":19,"ny":19,"refTime":"2026-04-11T21:00:00:Z","depth":"2","parameterNumber":3,"parameterNumberName":"V-component_of_CURRENTS"},"data":[0,0,0,-0.0263,-0.0263,-0.0232,-0.0232,-0.0114,-0.0113,0,0,0,0,0,0,0,0,0,0,0,-0.0296,-0.0297,-0.0263,-0.0263,-0.0232,-0.0232,-0.0114,-0.0113,0,0,0,0,0,0,0,0,0,0,0,-0.0295,-0.0296,-0.0297,-0.0263,-0.0232,-0.0231,-0.0114,-0.0153,0,0,0,0,0,0,0,0,0,0,-0.0191,-0.0223,-0.0296,-0.0297,-0.0263,-0.0232,-0.0231,-0.0156,-0.0151,-0.0111,0,-0.0138,0,-0.0118,-0.0104,-0.0104,0,0,0,-0.0247,-0.0228,-0.0235,-0.0298,-0.0263,-0.0232,-0.0241,-0.0153,-0.0148,-0.0104,-0.0136,-0.0132,-0.0116,-0.0104,-0.0103,0.0062,0.0063,0,0,-0.0248,-0.0263,-0.0239,-0.0233,-0.0295,-0.0242,-0.0241,-0.0151,-0.015,-0.0136,-0.0129,-0.0114,-0.0103,-0.0102,0.0061,0.0062,0,0,0,-0.0264,-0.0264,-0.0275,-0.0238,-0.0236,-0.0242,-0.024,-0.0154,-0.0164,-0.0127,-0.0113,-0.0102,-0.0101,0.006,0.0061,0.0026,0,0,0,-0.0264,-0.0275,-0.0276,-0.028,-0.0239,-0.02,-0.0245,-0.0171,-0.0159,-0.0114,-0.0102,-0.0099,0.0059,0.0061,0.0025,-0.0,0,0,0,-0.029,-0.0275,-0.0289,-0.0282,-0.0275,-0.0202,-0.0205,-0.0168,-0.015,-0.0104,-0.0099,0.0058,0.006,0.0024,-0.0001,-0.0004,0,0,0,-0.028,-0.0313,-0.0291,-0.0297,-0.0276,-0.0222,-0.0205,-0.0162,-0.0126,-0.0101,0.0059,0.0061,0.0024,-0.0001,-0.0004,-0.0019,-0.0019,0,0,-0.0313,-0.0317,-0.0313,-0.0292,-0.0267,-0.0222,-0.0142,-0.0105,-0.0071,0.0036,0.0039,0.0026,-0.0001,-0.0004,0.0104,0.01,0,0,0,-0.0314,-0.033,-0.0311,-0.0292,-0.0238,-0.0175,-0.0118,-0.0059,0.0015,-0.0043,0.0079,0.0065,0.0062,0.0056,0.0054,0.0071,0.0071,0.0071,0.0071,-0.0416,-0.0363,-0.0356,-0.0299,-0.0244,-0.0128,-0.0054,0.0041,0.0053,0.0092,0.0076,0.0104,0.01,0.0097,0.0128,0.0128,0.0128,0.0128,0.0128,-0.0475,-0.0473,-0.0391,-0.0372,-0.0275,-0.0203,-0.0011,0.0029,0.0131,0.0135,0.0134,0.007,0.0092,0.0126,0.0126,0.0127,0.0127,0.0127,0.0127,-0.0549,-0.0541,-0.0518,-0.0471,-0.0401,-0.0275,-0.0155,-0.0024,0.0073,0.0097,0.0066,0.0067,0.0045,0.0064,0.0063,0.0063,0.0063,0.0063,0.0063,-0.0643,-0.0609,-0.0631,-0.057,-0.0564,-0.0469,-0.0263,-0.0164,-0.0041,0.0036,0.0036,0.0082,0.0084,0.0044,0.0061,0.0062,0.0062,0.0062,0.0062,-0.0705,-0.0711,-0.0761,-0.0767,-0.0708,-0.062,-0.0422,-0.0222,-0.013,-0.0077,0.0029,0.003,0.0036,0.0039,0.0,0.0005,0.0005,0.0005,0.0005,-0.0775,-0.0767,-0.0872,-0.0895,-0.0842,-0.0684,-0.0501,-0.0224,-0.0046,0.0048,0.0046,0.0064,0.0065,0.0074,0.0077,0.0039,0.0054,0.0055,0.0055,-0.0805,-0.0862,-0.0947,-0.0974,-0.0912,-0.0741,-0.0522,-0.015,0.0077,0.006,0.0089,0.0002,0.0024,0.0027,0.0039,0.0044,-0.0018,0,0]}],[{"header":{"parameterUnit":"m.s-1","parameterCategory":2,"la1":30.2992,"la2":30.254,"lo1":-89.0895,"lo2":-89.0443,"dy":0.0025,"dx":0.0025,"nx":19,"ny":19,"refTime":"2026-04-11T21:00:00:Z","depth":"4","parameterNumber":2,"parameterNumberName":"U-component_of_CURRENTS"},"data":[0,0,0,-0.0494,-0.0494,-0.0485,-0.0485,-0.0547,-0.0547,0,0,0,0,0,0,0,0,0,0,0,-0.0507,-0.0507,-0.0494,-0.0494,-0.0485,-0.0485,-0.0546,-0.0547,0,0,0,0,0,0,0,0,0,0,0,-0.0507,-0.0507,-0.0507,-0.0494,-0.0485,-0.0485,-0.0546,-0.0535,0,0,0,0,0,0,0,0,0,0,-0.0535,-0.0518,-0.0507,-0.0507,-0.0494,-0.0485,-0.0485,-0.0534,-0.0536,-0.0571,0,-0.0575,0,-0.056,-0.0553,-0.0553,0,0,0,-0.0495,-0.0516,-0.053,-0.0507,-0.0494,-0.0485,-0.0489,-0.0534,-0.0537,-0.0574,-0.0576,-0.0577,-0.0561,-0.0554,-0.0554,-0.0674,-0.0675,0,0,-0.0496,-0.049,-0.0528,-0.0532,-0.0501,-0.049,-0.0489,-0.0535,-0.0534,-0.0576,-0.0578,-0.0562,-0.0554,-0.0555,-0.0674,-0.0675,0,0,0,-0.0496,-0.0491,-0.0502,-0.053,-0.0521,-0.0489,-0.0489,-0.0531,-0.054,-0.0578,-0.0563,-0.0555,-0.0556,-0.0673,-0.0674,-0.0725,0,0,0,-0.0496,-0.0491,-0.0502,-0.0496,-0.052,-0.0511,-0.0484,-0.0537,-0.0541,-0.0563,-0.0555,-0.0556,-0.0672,-0.0674,-0.0722,-0.0699,0,0,0,-0.0506,-0.0491,-0.0497,-0.0497,-0.0493,-0.051,-0.052,-0.0537,-0.0532,-0.0553,-0.0557,-0.0672,-0.0673,-0.0719,-0.0696,-0.0692,0,0,0,-0.0492,-0.0488,-0.0496,-0.0481,-0.0493,-0.0507,-0.0519,-0.0537,-0.0556,-0.0555,-0.0672,-0.0674,-0.0718,-0.0695,-0.0691,-0.0588,0,0,0,-0.0478,-0.0486,-0.0475,-0.0483,-0.0469,-0.0507,-0.0535,-0.0571,-0.0597,-0.0661,-0.0663,-0.0723,-0.0696,-0.0692,-0.0686,0,0,0,0,-0.0464,-0.0456,-0.0454,-0.0445,-0.0468,-0.0521,-0.0557,-0.0594,-0.0676,-0.0615,-0.0742,-0.0723,-0.0718,-0.0657,-0.0682,-0.0682,-0.0682,-0.0681,-0.0681,-0.0421,-0.0426,-0.0408,-0.0431,-0.0468,-0.0539,-0.0597,-0.0668,-0.0698,-0.0757,-0.0781,-0.0828,-0.077,-0.0822,-0.0823,-0.0823,-0.0823,-0.0823,-0.0823,-0.0374,-0.0353,-0.0389,-0.0384,-0.0464,-0.0526,-0.0659,-0.0714,-0.081,-0.083,-0.0825,-0.0736,-0.0829,-0.0828,-0.0827,-0.0826,-0.0826,-0.0826,-0.0825,-0.0327,-0.0321,-0.0323,-0.0337,-0.0422,-0.054,-0.0654,-0.0765,-0.0824,-0.0863,-0.0786,-0.0841,-0.0815,-0.0876,-0.0876,-0.0876,-0.0875,-0.0875,-0.0875,-0.0274,-0.0273,-0.025,-0.03,-0.034,-0.0476,-0.0656,-0.0716,-0.0798,-0.0798,-0.0871,-0.0844,-0.0843,-0.0817,-0.0874,-0.0874,-0.0875,-0.0875,-0.0875,-0.019,-0.0196,-0.0152,-0.0162,-0.0267,-0.0389,-0.0558,-0.0675,-0.0703,-0.0697,-0.0757,-0.0763,-0.0717,-0.0718,-0.0686,-0.0706,-0.0705,-0.0703,0,-0.013,-0.013,-0.0052,-0.0051,-0.0148,-0.0331,-0.0423,-0.0529,-0.0602,-0.0585,-0.0668,-0.0732,-0.0737,-0.0681,-0.068,-0.064,0,0,0,-0.0057,-0.0042,0.0032,0.0027,-0.0088,-0.0299,-0.0467,-0.0489,-0.0592,-0.0609,-0.0674,-0.0682,-0.0781,-0.0871,-0.0813,-0.0811,-0.0766,0,0]},{"header":{"parameterUnit":"m.s-1","parameterCategory":2,"la1":30.2992,"la2":30.254,"lo1":-89.0895,"lo2":-89.0443,"dy":0.0025,"dx":0.0025,"nx":19,"ny":19,"refTime":"2026-04-11T21:00:00:Z","depth":"4","parameterNumber":3,"parameterNumberName":"V-component_of_CURRENTS"},"data":[0,0,0,0.0101,0.0099,0.0024,0.0024,-0.0119,-0.0121,0,0,0,0,0,0,0,0,0,0,0,0.0133,0.0133,0.0101,0.0099,0.0024,0.0024,-0.0119,-0.0121,0,0,0,0,0,0,0,0,0,0,0,0.0133,0.0133,0.0133,0.0099,0.0024,0.0024,-0.0119,-0.0054,0,0,0,0,0,0,0,0,0,0,0.0024,0.0059,0.0133,0.0133,0.0099,0.0024,0.0023,-0.005,-0.0058,-0.0094,0,-0.0092,0,-0.0108,-0.013,-0.013,0,0,0,0.0086,0.0066,0.0053,0.0133,0.0098,0.0024,0.0054,-0.0054,-0.0063,-0.0105,-0.0094,-0.0099,-0.011,-0.0131,-0.0132,-0.0236,-0.0236,0,0,0.009,0.0105,0.0059,0.0048,0.0096,0.0057,0.0052,-0.0059,-0.0066,-0.0094,-0.0102,-0.0113,-0.0132,-0.0133,-0.0236,-0.0236,0,0,0,0.0111,0.0108,0.0098,0.0054,0.0045,0.0055,0.0049,-0.0061,-0.0062,-0.0104,-0.0114,-0.0133,-0.0134,-0.0236,-0.0236,-0.0202,0,0,0,0.0113,0.0121,0.0101,0.0107,0.0048,-0.0005,0.0049,-0.0054,-0.0067,-0.0114,-0.0133,-0.0136,-0.0236,-0.0236,-0.0203,-0.0236,0,0,0,0.0133,0.0122,0.0122,0.0108,0.0082,-0.0003,-0.0011,-0.0057,-0.0073,-0.0131,-0.0136,-0.0236,-0.0236,-0.0203,-0.0236,-0.0182,0,0,0,0.0139,0.0113,0.0122,0.007,0.0083,-0.001,-0.001,-0.0083,-0.0134,-0.0133,-0.0236,-0.0236,-0.0204,-0.0236,-0.0183,-0.0171,0,0,0,0.0102,0.0109,0.0071,0.0077,-0.0029,-0.0002,-0.0091,-0.0143,-0.0146,-0.0205,-0.0207,-0.0203,-0.0236,-0.0182,-0.0185,0,0,0,0,0.0053,0.0029,-0.0004,-0.0058,-0.0107,-0.0141,-0.0176,-0.0161,-0.0172,-0.0173,-0.0217,-0.0241,-0.0206,-0.0203,-0.0237,-0.0237,-0.0237,-0.0237,-0.0237,0.001,-0.0033,-0.0116,-0.017,-0.0215,-0.0244,-0.024,-0.0222,-0.0222,-0.0196,-0.022,-0.0178,-0.0174,-0.0205,-0.0205,-0.0205,-0.0205,-0.0205,-0.0205,-0.0078,-0.013,-0.0186,-0.0271,-0.03,-0.0348,-0.0318,-0.0271,-0.021,-0.0214,-0.0179,-0.018,-0.0202,-0.0202,-0.0203,-0.0203,-0.0203,-0.0203,-0.0204,-0.0107,-0.0137,-0.019,-0.0308,-0.037,-0.0394,-0.0364,-0.0304,-0.022,-0.0175,-0.0135,-0.0161,-0.0152,-0.0129,-0.0129,-0.0129,-0.0129,-0.0128,-0.0128,-0.0103,-0.0164,-0.0245,-0.0348,-0.0409,-0.0435,-0.038,-0.0301,-0.0212,-0.0137,-0.0165,-0.0153,-0.0156,-0.0148,-0.0127,-0.0127,-0.0127,-0.0127,-0.0128,-0.0136,-0.0154,-0.0271,-0.0345,-0.0477,-0.0481,-0.0435,-0.0256,-0.0158,-0.0067,-0.009,-0.0092,-0.0105,-0.0109,-0.01,-0.0064,-0.0063,-0.0063,0,-0.0139,-0.0165,-0.0307,-0.042,-0.0501,-0.0509,-0.038,-0.0269,-0.0141,-0.0153,-0.0166,-0.0202,-0.02,-0.0226,-0.0228,-0.0225,0,0,0,-0.0168,-0.02,-0.0295,-0.0413,-0.0517,-0.0412,-0.0339,-0.0263,-0.0191,-0.005,-0.0057,-0.0059,-0.0111,-0.0122,-0.0148,-0.0151,-0.014,0,0]}]]